This is the latest recevied weather packets stored in our database for station/object WR9A-13. If no packets are shown the sender has not sent any weather packets the latest 1 day(s).
| Time | Temp. | Humidity | Pressure | Rain* | Wind** | Luminosity | Snow |
|---|---|---|---|---|---|---|---|
| 1777988421 | 13.33° C | 83% | 1008.8 hPa | 0 mm | 1.79 m/s, 311° | - | - |
| 1777988138 | 13.33° C | 86% | 1009 hPa | 0 mm | 1.79 m/s, 329° | - | - |
| 1777987832 | 13.33° C | 88% | 1008.9 hPa | 0 mm | 3.58 m/s, 330° | - | - |
| 1777987514 | 13.33° C | 90% | 1009 hPa | 0 mm | 2.24 m/s, 301° | - | - |
| 1777987231 | 13.33° C | 91% | 1009 hPa | 0 mm | 1.79 m/s, 324° | - | - |
| 1777986918 | 13.33° C | 92% | 1009.1 hPa | 0 mm | 1.79 m/s, 355° | - | - |
| 1777986634 | 13.33° C | 92% | 1008.8 hPa | 0 mm | 1.34 m/s, 269° | - | - |
| 1777986321 | 13.33° C | 92% | 1008.9 hPa | 0 mm | 1.34 m/s, 315° | - | - |
| 1777986032 | 13.33° C | 93% | 1009 hPa | 0 mm | 1.34 m/s, 257° | - | - |
| 1777985729 | 13.89° C | 93% | 1008.7 hPa | 0 mm | 2.68 m/s, 238° | - | - |
| 1777985416 | 13.33° C | 93% | 1008.3 hPa | 0 mm | 1.79 m/s, 296° | - | - |
| 1777985114 | 13.33° C | 93% | 1008.3 hPa | 0 mm | 0.89 m/s, 230° | - | - |
| 1777984821 | 13.33° C | 93% | 1008.1 hPa | 0 mm | 0.89 m/s, 245° | - | - |
| 1777984517 | 13.33° C | 94% | 1007.9 hPa | 0 mm | 1.34 m/s, 269° | - | - |
| 1777984225 | 13.33° C | 94% | 1007.9 hPa | 0 mm | 0.89 m/s, 259° | - | - |
| 1777983922 | 13.33° C | 94% | 1008 hPa | 0 mm | 1.34 m/s, 219° | - | - |
| 1777983628 | 13.33° C | 94% | 1007.8 hPa | 0 mm | 0.89 m/s, 223° | - | - |
| 1777983325 | 13.33° C | 94% | 1008.1 hPa | 0 mm | 1.79 m/s, 225° | - | - |
| 1777983042 | 13.33° C | 94% | 1007.7 hPa | 0 mm | 0.89 m/s, 217° | - | - |
| 1777982729 | 13.33° C | 94% | 1007.7 hPa | 0 mm | 0.89 m/s, 230° | - | - |
| 1777982439 | 13.33° C | 94% | 1007.8 hPa | 0 mm | 0.89 m/s, 242° | - | - |
| 1777982127 | 13.33° C | 94% | 1007.7 hPa | 0 mm | 0.89 m/s, 239° | - | - |
| 1777981823 | 13.33° C | 94% | 1007.9 hPa | 0 mm | 1.34 m/s, 204° | - | - |
| 1777981530 | 13.33° C | 94% | 1007.7 hPa | 0 mm | 0.89 m/s, 181° | - | - |
| 1777981227 | 13.33° C | 94% | 1007.4 hPa | 0 mm | 0.89 m/s, 196° | - | - |
* Rain latest hour (hover to see other rain measurements)
** Current wind speed in m/s (hover to see current wind gust speed)